Weather History for Holland, MI

Change the Weather History Date:

Sunday, November 10, 2013

  Actual Average Record
Temperature  
Mean Temperature 40 °F 44 °F  
Max Temperature 47 °F 51 °F 67 °F (1975)
Min Temperature 33 °F 37 °F 21 °F (1987)
Degree Days  
Heating Degree Days 25 21  
Month to date heating degree days 191 194  
Since 1 July heating degree days 685 719  
Cooling Degree Days 0 0  
Month to date cooling degree days 0 0  
Year to date cooling degree days 811 693  
Moisture  
Dew Point 31 °F    
Average Humidity 66    
Maximum Humidity 82    
Minimum Humidity 49    
Precipitation  
Precipitation 0.00 in 0.12 in 1.40 in (1966)
Month to date precipitation 1.88 1.40  
Year to date precipitation 36.24 32.10  
Sea Level Pressure  
Sea Level Pressure 30.19 in    
Wind  
Wind Speed 13 mph (WNW)    
Max Wind Speed 26 mph    
Max Gust Speed 40 mph    
Visibility 10 miles    
Events      
T = Trace of Precipitation, MM = Missing Value Source: NWS Daily Summary

Daily Weather History Graph

Daily Weather History Graph

Search for Another Location

Airport:

Trip Planner

Search our weather history database for the weather conditions in past years. The results will help you decide how hot, cold, wet, or windy it might be!

Date:

Astronomy

Nov. 10, 2013 Rise Set
Actual Time 7:30 AM EST 5:26 PM EST
Civil Twilight 7:00 AM EST 5:56 PM EST
Nautical Twilight 6:26 AM EST 6:29 PM EST
Astronomical Twilight 5:52 AM EST 7:03 PM EST
Moon 1:40 PM EST (11/10) No Moon Set
Length of Visible Light 10h 56m
Length of Day
9h 55m
First Quarter, 55% of the Moon is Illuminated
Nov 10
First Quarter
Nov 17
Full
Nov 25
Last Quarter
Dec 2
New
Dec 9
First Quarter

Hourly Weather History & Observations

Time (EST) Temp. Windchill Dew Point Humidity Pressure Visibility Wind Dir Wind Speed Gust Speed Precip Events Conditions
12:53 AM 45.0 °F 37.6 °F 27.0 °F 49% 30.00 in 10.0 mi WNW 17.3 mph 32.2 mph N/A   Overcast
1:53 AM 43.0 °F 35.7 °F 28.0 °F 56% 30.00 in 10.0 mi WNW 15.0 mph 28.8 mph N/A   Overcast
2:53 AM 43.0 °F 34.2 °F 28.0 °F 56% 30.02 in 10.0 mi WNW 20.7 mph 33.4 mph N/A   Overcast
3:53 AM 43.0 °F 35.4 °F 30.0 °F 60% 30.04 in 10.0 mi WNW 16.1 mph 28.8 mph N/A   Overcast
4:53 AM 43.0 °F 33.8 °F 30.9 °F 62% 30.06 in 10.0 mi WNW 23.0 mph 35.7 mph N/A   Overcast
5:53 AM 42.1 °F 34.2 °F 28.9 °F 60% 30.10 in 10.0 mi NW 16.1 mph 35.7 mph N/A   Overcast
6:53 AM 43.0 °F 35.7 °F 30.0 °F 60% 30.12 in 10.0 mi NW 15.0 mph 31.1 mph N/A   Overcast
7:53 AM 43.0 °F 35.4 °F 30.0 °F 60% 30.16 in 10.0 mi WNW 16.1 mph 26.5 mph N/A   Overcast
8:53 AM 43.0 °F 36.4 °F 30.9 °F 62% 30.19 in 10.0 mi NW 12.7 mph 25.3 mph N/A   Overcast
9:53 AM 43.0 °F 35.7 °F 30.9 °F 62% 30.23 in 10.0 mi NW 15.0 mph 24.2 mph N/A   Overcast
10:53 AM 44.1 °F 37.1 °F 30.9 °F 60% 30.24 in 10.0 mi NW 15.0 mph 29.9 mph N/A   Overcast
11:53 AM 45.0 °F 37.9 °F 30.9 °F 58% 30.27 in 10.0 mi NW 16.1 mph 23.0 mph N/A   Overcast
12:53 PM 45.0 °F 38.2 °F 32.0 °F 60% 30.27 in 10.0 mi WNW 15.0 mph 23.0 mph N/A   Overcast
1:53 PM 46.0 °F 40.2 °F 32.0 °F 58% 30.28 in 10.0 mi NW 12.7 mph 23.0 mph N/A   Mostly Cloudy
2:53 PM 46.9 °F - 32.0 °F 56% 30.28 in 10.0 mi WNW 13.8 mph 18.4 mph N/A   Mostly Cloudy
3:53 PM 45.0 °F 39.3 °F 30.9 °F 58% 30.29 in 10.0 mi WNW 11.5 mph 18.4 mph N/A   Mostly Cloudy
4:53 PM 43.0 °F 39.5 °F 30.9 °F 62% 30.30 in 10.0 mi WNW 5.8 mph - N/A   Clear
5:53 PM 39.0 °F 36.8 °F 30.0 °F 70% 30.29 in 10.0 mi SW 3.5 mph - N/A   Partly Cloudy
6:53 PM 36.0 °F - 30.0 °F 79% 30.29 in 10.0 mi Calm Calm - N/A   Clear
7:53 PM 35.1 °F 32.2 °F 30.0 °F 82% 30.27 in 10.0 mi SSE 3.5 mph - N/A   Clear
8:53 PM 36.0 °F 30.3 °F 30.0 °F 79% 30.27 in 10.0 mi South 6.9 mph - N/A   Clear
9:53 PM 39.0 °F 32.8 °F 32.0 °F 76% 30.25 in 10.0 mi South 9.2 mph - N/A   Scattered Clouds
10:53 PM 39.9 °F 34.5 °F 33.1 °F 77% 30.24 in 10.0 mi SSE 8.1 mph - N/A   Overcast
11:53 PM 45.0 °F 37.9 °F 33.1 °F 63% 30.21 in 10.0 mi WSW 16.1 mph 21.9 mph N/A   Overcast